Find Starlink 5282

NORAD ID: 54169 Int'l Des: 2022-141 Owner: SPXS Country: US Constellation: starlink operational
LEOCIRCULAR

Live Position

Loading 3D Globe...

About Starlink 5282

Description loading...

Upcoming Passes

Passes for default location (London). Set your location on the main map for personalized predictions.

Altitude History

Loading altitude history...

Two-Line Element Set

1 54169U 22141N 26121.74486530 -.00000347 00000-0 -37431-5 0 9993
2 54169 53.2159 125.4956 0001073 66.1622 293.9483 15.08843522193872
Epoch: May 1, 2026 • Age: 11 hours

Current Status

Altitude 548.5 km
Velocity 7.59 km/s
Sub-Earth Point -28.61°S, 166.74°E
Launch Date Oct 28, 2022
Age 3.5 years
Type internet

Technical Details

Classification Payload
Mass 305.00 kg
Dry Mass 290.00 kg
Total Mass 305.00 kg
Length 0.20 m
Diameter 2.80 m
Span 9.00 m
Shape Box + pan
Manufacturer SPXS
Bus Type Starlink
Phase Status In Orbit
Owner/State SPXS/US

Most Searched